GW3254 Weather Reports


Display with metric or nautical units.
time (UTC)temp
F
wind
direction
speed
MPH
gust
MPH
rain 1hr
in
rain 24hr
in
rain mn
in
humidity
%
barometer
mb
20260507222854 48 125 1.0 3.0 0.00 0.00 0.00 47 1017.1
20260507222350 48 163 0.0 3.0 0.00 0.00 0.00 47 1017.4
20260507221847 48 150 1.0 2.0 0.00 0.00 0.00 46 1016.9
20260507221343 48 155 1.0 2.0 0.00 0.00 0.00 46 1017.0
20260507220839 49 181 2.0 3.0 0.00 0.00 0.00 46 1016.9
20260507220338 49 180 2.0 3.0 0.00 0.00 0.00 46 1017.2
20260507215833 49 175 2.0 3.0 0.00 0.00 0.00 46 1017.0
20260507215330 49 176 2.0 3.0 0.00 0.00 0.00 46 1017.1
20260507214827 50 176 2.0 3.0 0.00 0.00 0.00 46 1016.9
20260507214325 50 172 2.0 3.0 0.00 0.00 0.00 46 1016.9
20260507213820 50 172 2.0 3.0 0.00 0.00 0.00 46 1017.0
20260507213318 50 156 2.0 3.0 0.00 0.00 0.00 46 1016.9
20260507212814 50 146 1.0 3.0 0.00 0.00 0.00 45 1016.9
20260507212310 51 202 0.0 1.0 0.00 0.00 0.00 45 1016.9
20260507211807 51 168 2.0 3.0 0.00 0.00 0.00 45 1016.6
20260507211304 51 180 3.0 3.0 0.00 0.00 0.00 45 1016.8
20260507210801 51 169 1.0 2.0 0.00 0.00 0.00 45 1016.7
20260507210257 52 159 0.0 3.0 0.00 0.00 0.00 45 1016.5
20260507205753 52 165 0.0 2.0 0.00 0.00 0.00 45 1016.8
20260507205251 52 161 2.0 3.0 0.00 0.00 0.00 44 1016.4
20260507204747 52 191 2.0 3.0 0.00 0.00 0.00 44 1016.5
20260507204245 53 151 2.0 3.0 0.00 0.00 0.00 44 1016.5
20260507203742 53 149 2.0 3.0 0.00 0.00 0.00 44 1016.4
20260507203239 53 153 2.0 4.0 0.00 0.00 0.00 44 1016.5
20260507202736 54 151 2.0 3.0 0.00 0.00 0.00 44 1016.3
20260507202232 54 131 0.0 2.0 0.00 0.00 0.00 44 1016.4
20260507201727 54 103 0.0 2.0 0.00 0.00 0.00 44 1016.2
20260507201224 54 175 1.0 3.0 0.00 0.00 0.00 44 1016.4
20260507200720 55 143 1.0 3.0 0.00 0.00 0.00 43 1016.2
20260507200216 55 151 1.0 3.0 0.00 0.00 0.00 43 1016.2
20260507195712 55 128 2.0 2.0 0.00 0.00 0.00 43 1016.0
20260507195204 55 140 2.0 3.0 0.00 0.00 0.00 43 1015.8
20260507194701 56 68 0.0 2.0 0.00 0.00 0.00 43 1015.9
20260507194156 56 224 0.0 2.0 0.00 0.00 0.00 42 1015.9
20260507193653 56 144 1.0 2.0 0.00 0.00 0.00 42 1016.0
20260507193151 57 137 1.0 2.0 0.00 0.00 0.00 42 1015.6
20260507192646 57 132 0.0 2.0 0.00 0.00 0.00 42 1015.6
20260507192144 57 116 1.0 2.0 0.00 0.00 0.00 42 1015.5
20260507191639 57 147 0.0 2.0 0.00 0.00 0.00 42 1015.6
20260507191136 58 168 1.0 1.0 0.00 0.00 0.00 42 1015.5
20260507190634 58 121 0.0 2.0 0.00 0.00 0.00 42 1015.5
20260507190133 58 148 2.0 3.0 0.00 0.00 0.00 42 1015.2
20260507185631 58 148 3.0 3.0 0.00 0.00 0.00 42 1015.2
20260507185127 59 159 2.0 3.0 0.00 0.00 0.00 41 1015.3
20260507184625 59 140 0.0 2.0 0.00 0.00 0.00 41 1015.0
20260507184123 59 124 0.0 2.0 0.00 0.00 0.00 41 1014.8
20260507183618 59 152 1.0 2.0 0.00 0.00 0.00 41 1015.0
20260507183116 59 112 0.0 3.0 0.00 0.00 0.00 41 1014.9
20260507182612 60 183 3.0 4.0 0.00 0.00 0.00 41 1014.9
20260507182108 60 168 1.0 3.0 0.00 0.00 0.00 42 1014.8
20260507181605 60 169 0.0 2.0 0.00 0.00 0.00 42 1014.9
20260507181101 60 207 1.0 5.0 0.00 0.00 0.00 41 1014.9
20260507180559 60 175 1.0 3.0 0.00 0.00 0.00 42 1014.5
20260507180055 60 133 3.0 3.0 0.00 0.00 0.00 41 1014.7
20260507175551 61 140 1.0 5.0 0.00 0.00 0.00 42 1014.6
20260507175048 61 196 1.0 2.0 0.00 0.00 0.00 42 1014.6
20260507174545 61 157 0.0 2.0 0.00 0.00 0.00 42 1014.6
20260507174043 61 247 2.0 4.0 0.00 0.00 0.00 42 1014.4
20260507173540 61 211 0.0 5.0 0.00 0.00 0.00 42 1014.4
20260507173037 61 259 2.0 5.0 0.00 0.00 0.00 41 1014.3
20260507172533 61 255 0.0 5.0 0.00 0.00 0.00 41 1014.4
20260507172030 62 261 4.0 7.0 0.00 0.00 0.00 41 1014.5
20260507171525 62 328 1.0 5.0 0.00 0.00 0.00 40 1014.7
20260507171023 62 235 0.0 6.0 0.00 0.00 0.00 40 1014.6
20260507170519 62 190 1.0 5.0 0.00 0.00 0.00 40 1014.2
20260507170016 62 201 4.0 7.0 0.00 0.00 0.00 40 1014.5
20260507165512 62 255 3.0 5.0 0.00 0.00 0.00 40 1014.3
20260507165009 62 195 4.0 8.0 0.00 0.00 0.00 40 1014.4
20260507164505 62 191 2.0 7.0 0.00 0.00 0.00 40 1014.3
20260507164002 62 163 0.0 4.0 0.00 0.00 0.00 40 1014.3
20260507163459 62 248 3.0 7.0 0.00 0.00 0.00 40 1014.3
20260507162956 62 209 2.0 7.0 0.00 0.00 0.00 40 1014.5
20260507162451 62 276 2.0 7.0 0.00 0.00 0.00 40 1014.4
20260507161949 62 289 2.0 5.0 0.00 0.00 0.00 40 1014.0
20260507161445 62 241 2.0 3.0 0.00 0.00 0.00 40 1014.2
20260507160942 61 283 2.0 5.0 0.00 0.00 0.00 40 1014.0
20260507160438 61 221 2.0 7.0 0.00 0.00 0.00 40 1014.1
20260507155933 61 208 3.0 6.0 0.00 0.00 0.00 40 1013.9
20260507155430 61 212 0.0 4.0 0.00 0.00 0.00 40 1014.0
20260507154927 61 267 3.0 10.0 0.00 0.00 0.00 39 1014.0
20260507154423 61 246 1.0 4.0 0.00 0.00 0.00 40 1014.0
20260507153921 61 199 4.0 9.0 0.00 0.00 0.00 39 1014.1
20260507153417 61 116 0.0 4.0 0.00 0.00 0.00 39 1014.0
20260507152914 61 310 5.0 6.0 0.00 0.00 0.00 39 1014.1
20260507152410 61 351 2.0 5.0 0.00 0.00 0.00 39 1014.0
20260507151906 61 286 4.0 7.0 0.00 0.00 0.00 39 1014.0
20260507151403 62 30 5.0 7.0 0.00 0.00 0.00 39 1013.9
20260507150900 62 28 3.0 6.0 0.00 0.00 0.00 41 1013.9
20260507150356 61 211 3.0 5.0 0.00 0.00 0.00 42 1013.9
20260507145853 61 274 3.0 8.0 0.00 0.00 0.00 42 1013.8
20260507145349 61 168 2.0 6.0 0.00 0.00 0.00 41 1014.0
20260507144846 61 333 1.0 5.0 0.00 0.00 0.00 42 1014.0
20260507144343 61 237 3.0 5.0 0.00 0.00 0.00 42 1013.7
20260507143840 61 285 4.0 5.0 0.00 0.00 0.00 42 1013.8
20260507143337 60 266 5.0 8.0 0.00 0.00 0.00 41 1013.9
20260507142833 60 259 5.0 5.0 0.00 0.00 0.00 41 1013.8
20260507142330 61 18 4.0 9.0 0.00 0.00 0.00 42 1013.8
20260507141827 60 196 1.0 5.0 0.00 0.00 0.00 42 1013.9
20260507141323 60 210 2.0 7.0 0.00 0.00 0.00 41 1014.0
20260507140820 60 309 2.0 6.0 0.00 0.00 0.00 42 1014.0
20260507140317 60 260 2.0 8.0 0.00 0.00 0.00 42 1014.0
20260507135815 59 257 1.0 6.0 0.00 0.00 0.00 42 1014.1
20260507135311 59 196 4.0 11.0 0.00 0.00 0.00 42 1013.6
20260507134808 59 174 4.0 6.0 0.00 0.00 0.00 43 1013.9
20260507134304 59 312 5.0 9.0 0.00 0.00 0.00 42 1013.8
20260507133800 58 330 6.0 9.0 0.00 0.00 0.00 42 1013.9
20260507133256 58 190 4.0 7.0 0.00 0.00 0.00 42 1013.9
20260507132754 58 186 4.0 8.0 0.00 0.00 0.00 43 1013.8
20260507132250 57 233 1.0 8.0 0.00 0.00 0.00 43 1014.0
20260507131748 57 153 2.0 4.0 0.00 0.00 0.00 42 1013.8
20260507131245 57 63 6.0 7.0 0.00 0.00 0.00 43 1013.7
20260507130741 57 189 4.0 7.0 0.00 0.00 0.00 44 1013.9
20260507130239 57 332 1.0 7.0 0.00 0.00 0.00 45 1014.0
20260507125738 57 325 2.0 6.0 0.00 0.00 0.00 45 1013.8
20260507125235 56 264 5.0 10.0 0.00 0.00 0.00 45 1013.7
20260507124732 56 299 4.0 8.0 0.00 0.00 0.00 45 1013.8
20260507124228 55 294 2.0 9.0 0.00 0.00 0.00 45 1013.8
20260507123727 55 305 4.0 9.0 0.00 0.00 0.00 46 1013.7
20260507123224 55 265 2.0 7.0 0.00 0.00 0.00 46 1013.7
20260507122719 55 219 2.0 5.0 0.00 0.00 0.00 46 1013.7
20260507122215 54 277 3.0 4.0 0.00 0.00 0.00 46 1013.5
20260507121711 54 209 3.0 5.0 0.00 0.00 0.00 45 1013.9
20260507121207 53 224 3.0 12.0 0.00 0.00 0.00 45 1013.7
20260507120703 53 299 2.0 7.0 0.00 0.00 0.00 45 1013.7
20260507120201 52 170 3.0 6.0 0.00 0.00 0.00 45 1013.7
20260507115656 52 213 5.0 10.0 0.00 0.00 0.00 44 1013.7
20260507115152 52 22 4.0 9.0 0.00 0.00 0.00 45 1013.6
20260507114648 51 39 2.0 8.0 0.00 0.00 0.00 45 1013.6
20260507114146 51 25 4.0 9.0 0.00 0.00 0.00 45 1013.6
20260507113643 51 334 2.0 7.0 0.00 0.00 0.00 45 1013.8
20260507113139 51 138 4.0 7.0 0.00 0.00 0.00 45 1013.6
20260507112637 51 29 7.0 16.0 0.00 0.00 0.00 46 1013.6
20260507112134 50 327 2.0 6.0 0.00 0.00 0.00 46 1013.6
20260507111631 50 35 4.0 7.0 0.00 0.00 0.00 45 1013.6
20260507111128 50 330 2.0 6.0 0.00 0.00 0.00 45 1013.6
20260507110624 50 50 2.0 6.0 0.00 0.00 0.00 45 1013.7
20260507110121 50 37 8.0 10.0 0.00 0.00 0.00 45 1013.5
20260507105618 49 13 5.0 16.0 0.00 0.00 0.00 46 1013.5
20260507105114 49 15 2.0 8.0 0.00 0.00 0.00 47 1013.4
20260507104612 49 67 3.0 5.0 0.00 0.00 0.00 47 1013.3
20260507104108 49 214 6.0 9.0 0.00 0.00 0.00 47 1013.4
20260507103604 49 69 3.0 8.0 0.00 0.00 0.00 47 1013.3
20260507103101 48 304 6.0 9.0 0.00 0.00 0.00 47 1013.6
20260507102557 48 8 4.0 7.0 0.00 0.00 0.00 47 1013.5
20260507102053 48 38 4.0 9.0 0.00 0.00 0.00 48 1013.4
20260507101549 48 100 8.0 10.0 0.00 0.00 0.00 48 1013.5
20260507101045 47 302 4.0 11.0 0.00 0.00 0.00 48 1013.2
20260507100543 47 28 6.0 9.0 0.00 0.00 0.00 48 1013.3
20260507100041 47 100 2.0 4.0 0.00 0.00 0.00 48 1013.3
20260507095538 47 12 7.0 8.0 0.00 0.00 0.00 49 1013.4
20260507095035 46 330 5.0 9.0 0.00 0.00 0.00 49 1013.3
20260507094531 46 55 4.0 12.0 0.00 0.00 0.00 50 1013.0
20260507094028 46 324 6.0 9.0 0.00 0.00 0.00 50 1013.4
20260507093526 46 43 0.0 7.0 0.00 0.00 0.00 50 1013.4
20260507093024 46 266 3.0 7.0 0.00 0.00 0.00 51 1013.5
20260507092520 46 303 3.0 4.0 0.00 0.00 0.00 51 1013.4
20260507092017 45 292 4.0 5.0 0.00 0.00 0.00 51 1013.5
20260507091514 45 327 4.0 8.0 0.00 0.00 0.00 51 1013.5
20260507091010 45 32 4.0 11.0 0.00 0.00 0.00 52 1013.3
20260507090506 45 294 2.0 5.0 0.00 0.00 0.00 52 1013.5
20260507090003 44 314 4.0 8.0 0.00 0.00 0.00 52 1013.5
20260507085500 44 327 4.0 10.0 0.00 0.00 0.00 52 1013.2
20260507084956 44 32 4.0 9.0 0.00 0.00 0.00 52 1013.4
20260507084453 44 312 6.0 6.0 0.00 0.00 0.00 53 1013.4
20260507083950 44 315 4.0 7.0 0.00 0.00 0.00 53 1013.2
20260507083446 43 338 3.0 7.0 0.00 0.00 0.00 54 1013.4
20260507082943 43 297 3.0 8.0 0.00 0.00 0.00 54 1013.3
20260507082439 43 329 3.0 6.0 0.00 0.00 0.00 55 1013.2
20260507081936 43 329 5.0 9.0 0.00 0.00 0.00 55 1013.0
20260507081432 42 309 2.0 5.0 0.00 0.00 0.00 55 1013.2
20260507080929 42 311 4.0 6.0 0.00 0.00 0.00 55 1013.2
20260507080425 42 36 3.0 7.0 0.00 0.00 0.00 55 1013.1
20260507075920 42 305 1.0 7.0 0.00 0.00 0.00 56 1013.0
20260507075417 42 0 7.0 9.0 0.00 0.00 0.00 56 1013.0
20260507074914 42 346 3.0 7.0 0.00 0.00 0.00 56 1012.8
20260507074411 41 330 2.0 6.0 0.00 0.00 0.00 56 1012.9
20260507073909 41 320 3.0 7.0 0.00 0.00 0.00 56 1012.8
20260507073404 41 343 4.0 8.0 0.00 0.00 0.00 56 1013.1
20260507072902 41 338 3.0 6.0 0.00 0.00 0.00 56 1013.0
20260507072359 41 306 7.0 7.0 0.00 0.00 0.00 56 1012.8
20260507071856 41 34 3.0 5.0 0.00 0.00 0.00 56 1012.8
20260507071353 40 359 8.0 9.0 0.00 0.00 0.00 56 1012.8
20260507070849 40 320 4.0 7.0 0.00 0.00 0.00 56 1012.9
20260507070347 40 20 4.0 11.0 0.00 0.00 0.00 57 1012.8
20260507065844 40 10 5.0 9.0 0.00 0.00 0.00 57 1012.8
20260507065340 40 29 4.0 9.0 0.00 0.00 0.00 57 1012.6
20260507064837 39 322 6.0 9.0 0.00 0.00 0.00 57 1012.7
20260507064336 39 19 5.0 11.0 0.00 0.00 0.00 57 1012.5
20260507063833 39 29 5.0 9.0 0.00 0.00 0.00 57 1012.4
20260507063330 39 352 1.0 8.0 0.00 0.00 0.00 57 1012.4
20260507062827 39 16 3.0 7.0 0.00 0.00 0.00 57 1012.4
20260507062324 39 344 3.0 6.0 0.00 0.00 0.00 57 1012.3
20260507061822 38 26 4.0 8.0 0.00 0.00 0.00 57 1012.5
20260507061320 38 350 3.0 6.0 0.00 0.00 0.00 57 1012.5
20260507060818 38 341 2.0 6.0 0.00 0.00 0.00 57 1012.4
20260507060314 38 338 3.0 6.0 0.00 0.00 0.00 57 1012.3
20260507055811 38 329 5.0 7.0 0.00 0.00 0.00 57 1012.1
20260507055306 37 36 5.0 7.0 0.00 0.00 0.00 56 1012.2
20260507054803 37 326 4.0 6.0 0.00 0.00 0.00 56 1012.2
20260507054259 37 350 3.0 7.0 0.00 0.00 0.00 56 1012.2
20260507053757 37 25 6.0 9.0 0.00 0.00 0.00 56 1012.0
20260507053254 37 93 2.0 5.0 0.00 0.00 0.00 55 1011.9
20260507052753 37 14 3.0 7.0 0.00 0.00 0.00 55 1012.0
20260507052249 37 349 1.0 4.0 0.00 0.00 0.00 55 1011.9
20260507051747 36 0 3.0 5.0 0.00 0.00 0.00 55 1011.9
20260507051244 36 342 1.0 4.0 0.00 0.00 0.00 54 1012.2
20260507050741 36 353 2.0 4.0 0.00 0.00 0.00 54 1011.8
20260507050237 36 319 1.0 4.0 0.00 0.00 0.00 53 1012.0
20260507045734 36 345 0.0 2.0 0.00 0.00 0.00 53 1011.9
20260507045230 36 341 1.0 2.0 0.00 0.00 0.00 53 1012.0
20260507044728 36 131 1.0 3.0 0.00 0.00 0.00 53 1011.9
20260507044224 36 142 2.0 3.0 0.00 0.00 0.00 53 1011.7
20260507043720 36 149 3.0 3.0 0.00 0.00 0.00 53 1011.8
20260507043217 36 164 2.0 3.0 0.00 0.00 0.00 53 1011.7
20260507042714 36 156 1.0 3.0 0.00 0.00 0.00 53 1011.6
20260507042208 36 127 2.0 3.0 0.00 0.00 0.00 53 1011.6
20260507041706 36 155 2.0 3.0 0.00 0.00 0.00 53 1011.5
20260507041203 36 174 1.0 2.0 0.00 0.00 0.00 53 1011.4
20260507040700 37 169 2.0 3.0 0.00 0.00 0.00 53 1011.5
20260507040155 37 116 2.0 3.0 0.00 0.00 0.00 52 1011.4
20260507035652 37 128 2.0 3.0 0.00 0.00 0.00 52 1011.2
20260507035148 37 149 1.0 3.0 0.00 0.00 0.00 52 1011.3
20260507034645 37 153 1.0 3.0 0.00 0.00 0.00 52 1011.5
20260507034142 37 114 1.0 3.0 0.00 0.00 0.00 52 1011.4
20260507033641 37 164 2.0 3.0 0.00 0.00 0.00 52 1011.3
20260507033137 37 95 1.0 2.0 0.00 0.00 0.00 52 1011.4
20260507032635 37 116 1.0 3.0 0.00 0.00 0.00 52 1011.2
20260507032131 37 69 1.0 3.0 0.00 0.00 0.00 52 1011.2
20260507031628 37 137 1.0 2.0 0.00 0.00 0.00 52 1011.3
20260507031124 37 159 2.0 3.0 0.00 0.00 0.00 52 1011.1
20260507030621 37 144 2.0 3.0 0.00 0.00 0.00 52 1011.0
20260507030119 38 209 0.0 2.0 0.00 0.00 0.00 52 1011.1
20260507025616 38 13 0.0 1.0 0.00 0.00 0.00 52 1011.0
20260507025113 38 130 1.0 3.0 0.00 0.00 0.00 52 1010.9
20260507024611 38 135 2.0 3.0 0.00 0.00 0.00 52 1011.0
20260507024108 38 129 0.0 3.0 0.00 0.00 0.00 52 1010.9
20260507023603 38 147 1.0 3.0 0.00 0.00 0.00 52 1011.0
20260507023101 38 157 1.0 3.0 0.00 0.00 0.00 52 1010.7
20260507022557 38 148 1.0 3.0 0.00 0.00 0.00 52 1010.8
20260507022052 39 109 1.0 3.0 0.00 0.00 0.00 51 1011.0
20260507021548 39 128 1.0 3.0 0.00 0.00 0.00 51 1010.8
20260507021045 39 134 0.0 2.0 0.00 0.00 0.00 51 1010.9
20260507020543 39 140 2.0 2.0 0.00 0.00 0.00 51 1010.7
20260507020034 39 127 2.0 2.0 0.00 0.00 0.00 51 1010.8
20260507015532 39 81 1.0 2.0 0.00 0.00 0.00 51 1010.7
20260507015030 39 149 1.0 3.0 0.00 0.00 0.00 51 1010.6
20260507014526 39 129 1.0 3.0 0.00 0.00 0.00 51 1010.6
20260507014021 39 134 2.0 3.0 0.00 0.00 0.00 51 1010.5
20260507013518 39 112 1.0 2.0 0.00 0.00 0.00 51 1010.8
20260507013016 40 149 3.0 3.0 0.00 0.00 0.00 51 1010.5
20260507012513 40 142 2.0 3.0 0.00 0.00 0.00 50 1010.8
20260507012009 40 347 0.0 2.0 0.00 0.00 0.00 50 1010.5
20260507011507 40 141 2.0 2.0 0.00 0.00 0.00 50 1010.4
20260507011002 40 111 2.0 3.0 0.00 0.00 0.00 50 1010.4
20260507010456 40 137 0.0 2.0 0.00 0.00 0.00 50 1010.3
20260507005953 40 100 1.0 3.0 0.00 0.00 0.00 50 1010.3
20260507005451 41 156 2.0 3.0 0.00 0.00 0.00 50 1010.5
20260507004947 41 171 2.0 3.0 0.00 0.00 0.00 50 1010.5
20260507004444 41 132 1.0 3.0 0.00 0.00 0.00 50 1010.2
20260507003942 41 146 2.0 3.0 0.00 0.00 0.00 50 1010.3
20260507003436 41 44 0.0 2.0 0.00 0.00 0.00 50 1010.4
20260507002931 41 152 1.0 3.0 0.00 0.00 0.00 50 1010.3
20260507002428 41 133 2.0 3.0 0.00 0.00 0.00 50 1010.3
20260507001925 41 141 2.0 3.0 0.00 0.00 0.00 49 1010.3
20260507001422 42 163 0.0 2.0 0.00 0.00 0.00 49 1010.1
20260507000920 42 185 0.0 2.0 0.00 0.00 0.00 49 1010.2
20260507000414 42 137 2.0 3.0 0.00 0.00 0.00 49 1010.1
20260506235910 42 123 1.0 2.0 0.00 0.00 0.00 49 1010.1
20260506235408 42 147 0.0 2.0 0.00 0.00 0.00 49 1010.0
20260506234903 42 146 0.0 2.0 0.00 0.00 0.00 49 1010.0
20260506234402 42 132 1.0 4.0 0.00 0.00 0.00 49 1010.0
20260506233859 43 124 1.0 2.0 0.00 0.00 0.00 49 1009.9
20260506233354 43 137 2.0 2.0 0.00 0.00 0.00 49 1010.0
20260506232852 43 166 1.0 3.0 0.00 0.00 0.00 49 1009.9
20260506232348 43 133 2.0 2.0 0.00 0.00 0.00 49 1010.1
20260506231844 43 160 1.0 1.0 0.00 0.00 0.00 49 1010.0
20260506231342 43 145 2.0 3.0 0.00 0.00 0.00 49 1009.9
20260506230839 44 154 2.0 3.0 0.00 0.00 0.00 48 1009.8
20260506230336 44 142 2.0 3.0 0.00 0.00 0.00 48 1009.8
20260506225832 44 168 2.0 3.0 0.00 0.00 0.00 48 1009.9
20260506225329 44 118 2.0 4.0 0.00 0.00 0.00 48 1009.8
20260506224826 44 129 2.0 4.0 0.00 0.00 0.00 48 1009.7
20260506224323 44 36 1.0 3.0 0.00 0.00 0.00 48 1009.8
20260506223820 45 171 3.0 3.0 0.00 0.00 0.00 48 1009.7